GIA923 WAHS-WICC

Flight info

Callsign GIA923
Flight time N/A
Altitude 16000
Route KIDET W16S CA
Aircraft AT76/M-SDFGIRY/S

Departure

Time 2026-04-29 07:34
Airport Jenderal Ahmad Yani Airport (WAHS)

Arrival

Time N/A
Airport Husein Sastranegara International Airport (WICC)
Time Latitude Longitude Altitude Speed Heading
2026-04-29 07:12 -6.96815 110.37576 15 ft 0 kts 40°
2026-04-29 07:19 -6.96826 110.37567 15 ft 2 kts 40°
2026-04-29 07:20 -6.96838 110.37556 16 ft 2 kts 40°
2026-04-29 07:20 -6.96851 110.37546 15 ft 2 kts 40°
2026-04-29 07:20 -6.96863 110.37535 15 ft 2 kts 24°
2026-04-29 07:20 -6.96879 110.37535 16 ft 2 kts 330°
2026-04-29 07:21 -6.96888 110.37541 18 ft 0 kts 314°
2026-04-29 07:22 -6.96888 110.37540 18 ft 1 kts 312°
2026-04-29 07:22 -6.96875 110.37525 16 ft 4 kts 310°
2026-04-29 07:22 -6.96857 110.37504 15 ft 0 kts 310°
2026-04-29 07:23 -6.96855 110.37502 15 ft 2 kts 310°
2026-04-29 07:23 -6.96848 110.37494 15 ft 0 kts 310°
2026-04-29 07:27 -6.96845 110.37490 15 ft 2 kts 310°
2026-04-29 07:27 -6.96827 110.37468 15 ft 5 kts 310°
2026-04-29 07:27 -6.96799 110.37435 15 ft 7 kts 310°
2026-04-29 07:28 -6.96765 110.37395 15 ft 8 kts 310°
2026-04-29 07:28 -6.96727 110.37349 15 ft 9 kts 310°
2026-04-29 07:28 -6.96687 110.37301 15 ft 9 kts 310°
2026-04-29 07:28 -6.96645 110.37252 15 ft 9 kts 310°
2026-04-29 07:29 -6.96615 110.37213 15 ft 6 kts 297°
2026-04-29 07:29 -6.96619 110.37196 15 ft 3 kts 237°
2026-04-29 07:29 -6.96639 110.37178 15 ft 4 kts 220°
2026-04-29 07:29 -6.96667 110.37155 14 ft 6 kts 220°
2026-04-29 07:30 -6.96707 110.37121 13 ft 9 kts 219°
2026-04-29 07:30 -6.96762 110.37076 7 ft 12 kts 220°
2026-04-29 07:30 -6.96783 110.36997 3 ft 13 kts 301°
2026-04-29 07:31 -6.96667 110.36853 2 ft 13 kts 309°
2026-04-29 07:31 -6.96609 110.36783 3 ft 13 kts 313°
2026-04-29 07:31 -6.96548 110.36716 2 ft 13 kts 312°
2026-04-29 07:31 -6.96486 110.36644 1 ft 14 kts 309°
2026-04-29 07:32 -6.96424 110.36570 1 ft 14 kts 310°
2026-04-29 07:32 -6.96363 110.36498 1 ft 13 kts 310°
2026-04-29 07:32 -6.96305 110.36430 1 ft 13 kts 310°
2026-04-29 07:32 -6.96280 110.36373 1 ft 9 kts 298°
2026-04-29 07:33 -6.96255 110.36369 1 ft 1 kts 73°
2026-04-29 07:33 -6.96257 110.36371 1 ft 0 kts 116°
2026-04-29 07:33 -6.96264 110.36381 1 ft 4 kts 128°
2026-04-29 07:33 -6.96278 110.36398 1 ft 11 kts 129°
2026-04-29 07:34 -6.96419 110.36558 1 ft 60 kts 131°
2026-04-29 07:34 -6.96809 110.37025 3 ft 115 kts 130°
2026-04-29 07:34 -6.97375 110.37723 272 ft 131 kts 127°
2026-04-29 07:34 -6.97882 110.38492 681 ft 137 kts 129°
2026-04-29 07:35 -6.98446 110.39284 1062 ft 142 kts 114°
2026-04-29 07:35 -6.98790 110.40228 1471 ft 144 kts 110°
2026-04-29 07:35 -6.99119 110.41191 1912 ft 147 kts 110°
2026-04-29 07:35 -6.99473 110.42178 2329 ft 156 kts 111°
2026-04-29 07:36 -6.99875 110.43193 2816 ft 160 kts 113°
2026-04-29 07:36 -7.00334 110.44297 3046 ft 181 kts 114°
2026-04-29 07:36 -7.00854 110.45505 3371 ft 193 kts 114°
2026-04-29 07:36 -7.01394 110.46750 3814 ft 195 kts 114°
2026-04-29 07:37 -7.01935 110.48003 4225 ft 196 kts 114°
2026-04-29 07:37 -7.02479 110.49262 4616 ft 197 kts 114°
2026-04-29 07:37 -7.03024 110.50530 5022 ft 198 kts 114°
2026-04-29 07:37 -7.03257 110.51878 5375 ft 200 kts 78°
2026-04-29 07:38 -7.02526 110.53040 5737 ft 200 kts 37°